Location: Indian Hills
(32.9760°N, 85.9450°W)
Time: 17:58:00
(UTC+00:00)

CZ-4C R/B - Pass Details

Date: 09 December 2019
Orbit: 646 x 1356 km, 63.4° (Epoch: 23 January)

Event Time Altitude Azimuth Distance (km) Brightness Sun altitude
Exits shadow 10:15:48 27° 349° (NNW) 2,158 4.1 -28.4°
Maximum altitude 10:20:13 58° 57° (ENE) 1,471 3.5 -27.5°
Drops below altitude 10° 10:28:26 10° 135° (SE) 3,388 6.0 -25.8°
Sets 10:31:26 0° 139° (SE) 4,370 6.7 -25.2°
